Gunnison, CO

8:23 PM MST on December 04, 2016 (GMT -0700)
Gunnison County

Weather History for KGUC - November, 2011

Change the Weather History Date:

Tuesday, November 15, 2011

  Actual Average Record
Temperature  
Mean Temperature 32 °F -  
Max Temperature 46 °F 39 °F 63 °F (2016)
Min Temperature 19 °F 12 °F -4 °F (2006)
Degree Days  
Heating Degree Days 32    
Moisture  
Dew Point 16 °F    
Average Humidity 50    
Maximum Humidity 80    
Minimum Humidity 23    
Precipitation  
Precipitation 0.00 in - - ()
Sea Level Pressure  
Sea Level Pressure 29.98 in    
Wind  
Wind Speed 7 mph (WNW)    
Max Wind Speed 20 mph    
Max Gust Speed 29 mph    
Visibility 10 miles    
Events      
Averages and records for this station are not official NWS values.
T = Trace of Precipitation, MM = Missing Value Source: NWS Daily Summary

Daily Weather History Graph

Daily Weather History Graph

Search for Another Location

Airport or City:

Trip Planner

Search our weather history database for the weather conditions in past years. The results will help you decide how hot, cold, wet, or windy it might be!

Date:

Astronomy

Nov. 15, 2011 Rise Set
Actual Time 6:49 AM MST 4:54 PM MST
Civil Twilight 6:21 AM MST 5:23 PM MST
Nautical Twilight 5:48 AM MST 5:55 PM MST
Astronomical Twilight 5:17 AM MST 6:26 PM MST
Moon 9:07 PM MST (11/15) 10:50 AM MST (11/15)
Length of Visible Light 11h 02m
Length of Day
10h 05m
Waning Gibbous, 78% of the Moon is Illuminated
Nov 15
Waning Gibbous
Nov 18
Last Quarter
Nov 24
New
Dec 2
First Quarter
Dec 10
Full

Hourly Weather History & Observations

Time (MST) Temp. Windchill Dew Point Humidity Pressure Visibility Wind Dir Wind Speed Gust Speed Precip Events Conditions
12:15 AM 28.4 °F 21.2 °F 15.8 °F 59% 29.96 in 10.0 mi SE 6.9 mph - N/A   Scattered Clouds
12:35 AM 28.4 °F - 17.6 °F 64% 29.96 in 10.0 mi Calm Calm - N/A   Mostly Cloudy
12:55 AM 28.4 °F 23.3 °F 17.6 °F 64% 29.97 in 10.0 mi ESE 4.6 mph - N/A   Mostly Cloudy
1:15 AM 30.2 °F - 15.8 °F 55% 29.97 in 10.0 mi Calm Calm - N/A   Mostly Cloudy
1:35 AM 30.2 °F - 15.8 °F 55% 29.96 in 10.0 mi Calm Calm - N/A   Scattered Clouds
1:55 AM 28.4 °F 19.1 °F 17.6 °F 64% 29.95 in 10.0 mi SSE 10.4 mph - N/A   Clear
2:15 AM 28.4 °F 18.5 °F 15.8 °F 59% 29.94 in 10.0 mi SSE 11.5 mph - N/A   Clear
2:35 AM 28.4 °F 19.7 °F 17.6 °F 64% 29.94 in 10.0 mi South 9.2 mph - N/A   Clear
2:55 AM 28.4 °F 20.4 °F 15.8 °F 59% 29.95 in 10.0 mi SE 8.1 mph - N/A   Clear
3:15 AM 26.6 °F 18.2 °F 17.6 °F 69% 29.95 in 10.0 mi NE 8.1 mph - N/A   Clear
3:35 AM 26.6 °F 21.2 °F 17.6 °F 69% 29.95 in 10.0 mi NE 4.6 mph - N/A   Clear
3:55 AM 24.8 °F 20.5 °F 15.8 °F 69% 29.95 in 10.0 mi North 3.5 mph - N/A   Clear
4:15 AM 24.8 °F 17.9 °F 15.8 °F 69% 29.95 in 10.0 mi North 5.8 mph - N/A   Clear
4:35 AM 24.8 °F 19.1 °F 15.8 °F 69% 29.96 in 10.0 mi North 4.6 mph - N/A   Clear
4:55 AM 24.8 °F 16.9 °F 15.8 °F 69% 29.96 in 10.0 mi North 6.9 mph - N/A   Clear
6:15 AM 19.4 °F 12.8 °F 14.0 °F 80% 29.97 in 10.0 mi North 4.6 mph - N/A   Clear
6:35 AM 21.2 °F 16.4 °F 14.0 °F 74% 29.97 in 10.0 mi ENE 3.5 mph - N/A   Clear
6:55 AM 21.2 °F 14.9 °F 15.8 °F 80% 29.98 in 10.0 mi North 4.6 mph - N/A   Clear
7:15 AM 21.2 °F 12.6 °F 14.0 °F 74% 29.99 in 10.0 mi North 6.9 mph - N/A   Clear
8:15 AM 24.8 °F - 15.8 °F 69% 30.02 in 10.0 mi Calm Calm - N/A   Clear
8:35 AM 26.6 °F - 17.6 °F 69% 30.02 in 10.0 mi Calm Calm - N/A   Clear
8:55 AM 28.4 °F - 17.6 °F 64% 30.02 in 10.0 mi Calm Calm - N/A   Clear
9:15 AM 32.0 °F - 19.4 °F 60% 30.03 in 10.0 mi Calm Calm - N/A   Clear
9:35 AM 32.0 °F - 17.6 °F 55% 30.02 in 10.0 mi Calm Calm - N/A   Scattered Clouds
9:55 AM 35.6 °F - 19.4 °F 52% 30.02 in 10.0 mi Calm Calm - N/A   Mostly Cloudy
10:15 AM 37.4 °F 33.8 °F 19.4 °F 48% 30.02 in 10.0 mi SSW 4.6 mph - N/A   Scattered Clouds
10:35 AM 39.2 °F 32.0 °F 21.2 °F 49% 30.02 in 10.0 mi SW 11.5 mph - N/A   Clear
10:55 AM 41.0 °F 35.2 °F 19.4 °F 42% 30.01 in 10.0 mi SW 9.2 mph - N/A   Mostly Cloudy
11:15 AM 42.8 °F 35.4 °F 17.6 °F 36% 30.00 in 10.0 mi WSW 15.0 mph 18.4 mph N/A   Mostly Cloudy
11:35 AM 44.6 °F 38.1 °F 15.8 °F 31% 30.00 in 10.0 mi West 13.8 mph 25.3 mph N/A   Overcast
11:55 AM 42.8 °F 35.4 °F 12.2 °F 29% 29.99 in 10.0 mi WSW 15.0 mph 27.6 mph N/A   Overcast
12:15 PM 44.6 °F 38.4 °F 14.0 °F 29% 29.98 in 10.0 mi West 12.7 mph 16.1 mph N/A   Overcast
12:35 PM 44.6 °F 37.4 °F 12.2 °F 27% 29.97 in 10.0 mi WSW 16.1 mph 23.0 mph N/A   Overcast
12:55 PM 44.6 °F 38.1 °F 12.2 °F 27% 29.97 in 10.0 mi West 13.8 mph 21.9 mph N/A   Overcast
1:15 PM 44.6 °F 38.1 °F 10.4 °F 25% 29.96 in 10.0 mi West 13.8 mph 28.8 mph N/A   Overcast
1:35 PM 46.4 °F 40.1 °F 12.2 °F 25% 29.94 in 10.0 mi WNW 15.0 mph 23.0 mph N/A   Mostly Cloudy
1:55 PM 46.4 °F 40.7 °F 12.2 °F 25% 29.95 in 10.0 mi West 12.7 mph 25.3 mph N/A   Overcast
2:15 PM 46.4 °F 40.4 °F 10.4 °F 23% 29.95 in 10.0 mi WNW 13.8 mph 21.9 mph N/A   Overcast
2:35 PM 44.6 °F 36.6 °F 10.4 °F 25% 29.94 in 10.0 mi West 19.6 mph 25.3 mph N/A   Overcast
2:55 PM 44.6 °F 37.4 °F 10.4 °F 25% 29.94 in 10.0 mi West 16.1 mph 24.2 mph N/A   Overcast
3:35 PM 42.8 °F 36.2 °F 12.2 °F 29% 29.95 in 10.0 mi West 12.7 mph 17.3 mph N/A   Overcast
3:55 PM 42.8 °F 35.8 °F 14.0 °F 31% 29.95 in 10.0 mi West 13.8 mph 18.4 mph N/A   Mostly Cloudy
4:15 PM 42.8 °F 36.2 °F 14.0 °F 31% 29.95 in 10.0 mi WNW 12.7 mph 16.1 mph N/A   Mostly Cloudy
4:35 PM 42.8 °F 36.6 °F 14.0 °F 31% 29.95 in 10.0 mi West 11.5 mph - N/A   Overcast
4:55 PM 42.8 °F 36.2 °F 14.0 °F 31% 29.96 in 10.0 mi WNW 12.7 mph 17.3 mph N/A   Overcast
5:15 PM 41.0 °F 34.7 °F 15.8 °F 36% 29.96 in 10.0 mi WNW 10.4 mph - N/A   Overcast
5:35 PM 39.2 °F 30.8 °F 15.8 °F 39% 29.97 in 10.0 mi West 15.0 mph 20.7 mph N/A   Overcast
5:55 PM 37.4 °F 30.8 °F 15.8 °F 41% 29.98 in 10.0 mi WNW 9.2 mph - N/A   Mostly Cloudy
6:35 PM 37.4 °F 34.9 °F 19.4 °F 48% 30.00 in 10.0 mi NNE 3.5 mph - N/A   Overcast
7:15 PM 35.6 °F 30.7 °F 21.2 °F 56% 30.02 in 10.0 mi NNE 5.8 mph - N/A   Overcast
7:35 PM 35.6 °F 30.7 °F 21.2 °F 56% 30.03 in 10.0 mi North 5.8 mph - N/A   Overcast
7:55 PM 35.6 °F - 21.2 °F 56% 30.03 in 10.0 mi Calm Calm - N/A   Overcast
8:15 PM 33.8 °F 27.7 °F 23.0 °F 65% 30.03 in 10.0 mi East 6.9 mph - N/A   Overcast
9:35 PM 30.2 °F 23.4 °F 23.0 °F 75% 30.04 in 10.0 mi SW 6.9 mph - N/A   Partly Cloudy
9:55 PM 30.2 °F 25.4 °F 21.2 °F 69% 30.05 in 10.0 mi NW 4.6 mph - N/A   Partly Cloudy
10:15 PM 30.2 °F 26.7 °F 21.2 °F 69% 30.05 in 10.0 mi West 3.5 mph - N/A   Clear
10:36 PM 28.4 °F 23.3 °F 21.2 °F 74% 30.05 in 10.0 mi NW 4.6 mph - N/A   Clear
10:55 PM 28.4 °F 22.2 °F 21.2 °F 74% 30.05 in 10.0 mi West 5.8 mph - N/A   Clear
11:15 PM 28.4 °F - 21.2 °F 74% 30.05 in 10.0 mi Calm Calm - N/A   Partly Cloudy
11:35 PM 28.4 °F 23.3 °F 21.2 °F 74% 30.05 in 10.0 mi North 4.6 mph - N/A   Partly Cloudy
11:55 PM 28.4 °F 23.3 °F 21.2 °F 74% 30.06 in 10.0 mi North 4.6 mph - N/A   Mostly Cloudy